Orbital Elements at Epoch 2459200.5 (2020-Dec-17.0) TDB
Reference: JPL 16 (heliocentric ecliptic J2000)
Element | Value | Uncertainty (1-sigma) | Units |
e | .2420788904319568 | 6.1952e-08 | |
a | 2.440506558081806 | 2.7571e-08 | au |
q | 1.849711438409449 | 1.4774e-07 | au |
i | 7.661211236221451 | 5.8438e-06 | deg |
node | 255.4996999757551 | 4.4228e-05 | deg |
peri | 116.260645001787 | 4.5655e-05 | deg |
M | 333.9877966234039 | 1.9586e-05 | deg |
tp | 2459301.122020909172 (2021-Mar-27.62202091) | 7.7196e-05 | TDB |
period | 1392.574362227756 3.81 | 2.3598e-05 6.461e-08 | d yr |
n | .2585140224929129 | 4.3807e-09 | deg/d |
Q | 3.031301677754164 | 3.4245e-08 | au |
|
| | Orbit Determination Parameters
Additional Information
|